Location: Lansingburgh
(42.7845°N, 73.6696°W)
Time: 06:58:03
(UTC+00:00)

ACS3 Solar Sail - Visible Passes

Search period start: 05 October 2024 00:00
Search period end: 15 October 2024 00:00
Orbit: 962 x 1037 km, 97.4° (Epoch: 05 October)

Date Brightness Start Highest point End Pass type
(mag) Time Alt. Az. Time Alt. Az. Time Alt. Az.
05 Oct 1.8 00:45:12 48° SSE 00:47:08 77° ENE 00:53:31 10° N visible
05 Oct 4.0 02:30:23 17° WSW 02:31:41 18° W 02:35:49 10° NW visible
05 Oct 3.0 23:32:31 16° E 23:35:43 24° ENE 23:40:36 10° NNE visible
06 Oct 2.2 01:17:41 50° SSW 01:19:08 62° W 01:25:28 10° NNW visible
07 Oct 2.3 00:04:58 30° ESE 00:07:21 41° ENE 00:13:12 10° N visible
07 Oct 3.1 01:50:09 33° WSW 01:51:17 35° W 01:57:03 10° NNW visible
07 Oct 3.6 22:53:50 10° E 22:56:19 13° NE 22:58:48 10° NNE visible
08 Oct 1.8 00:37:25 49° SE 00:39:08 70° ENE 00:45:27 10° N visible
08 Oct 3.9 02:22:36 19° W 02:23:35 19° W 02:28:02 10° NW visible
08 Oct 3.0 23:24:41 16° E 23:27:43 22° ENE 23:32:20 10° NNE visible
09 Oct 2.1 01:09:52 56° SSW 01:11:03 69° W 01:17:24 10° NNW visible
09 Oct 2.4 23:57:06 29° ESE 23:59:17 37° ENE 00:04:59 10° N visible
10 Oct 3.0 01:42:17 37° WSW 01:43:08 38° W 01:49:01 10° NNW visible
10 Oct 3.6 22:46:32 10° ENE 22:48:16 11° NE 22:49:58 10° NE visible
11 Oct 1.8 00:29:31 50° SE 00:30:59 64° ENE 00:37:14 10° N visible
11 Oct 3.8 02:14:41 21° W 02:15:21 22° W 02:20:05 10° NW visible
11 Oct 3.1 23:16:43 15° E 23:19:35 20° ENE 23:23:55 10° NNE visible
12 Oct 1.9 01:01:53 64° SSW 01:02:50 75° WSW 01:09:11 10° NNW visible
12 Oct 4.5 02:47:03 11° W 02:47:44 11° W 02:49:22 10° WNW visible
12 Oct 2.5 23:49:06 28° E 23:51:04 34° ENE 23:56:35 10° N visible
13 Oct 2.8 01:34:16 42° WSW 01:34:50 42° W 01:40:47 10° NNW visible
14 Oct 1.9 00:21:27 49° ESE 00:22:42 58° ENE 00:28:50 10° N visible
14 Oct 3.7 02:06:37 24° W 02:06:57 24° W 02:11:55 10° NW visible
14 Oct 3.2 23:08:37 14° E 23:11:18 18° ENE 23:15:17 10° NNE visible
